| time (UTC) | temp F | wind direction | speed knots | gust knots | rain 1hr in | rain 24hr in | rain mn in | humidity % | barometer mb |
| 20260901081306 | 82 | 8 | 0.0 | 0.0 | 0.00 | 0.00 | 0.00 | 65 | 1017.1 |
| 20260901080807 | 81 | 8 | 0.0 | 0.9 | 0.00 | 0.00 | 0.00 | 66 | 1017.1 |
| 20260901080257 | 81 | 1 | 0.0 | 0.9 | 0.00 | 0.00 | 0.00 | 66 | 1017.0 |
| 20260901075755 | 81 | 1 | 0.0 | 0.0 | 0.00 | 0.00 | 0.00 | 65 | 1017.1 |
| 20260901074246 | 79 | 7 | 0.0 | 0.9 | 0.00 | 0.00 | 0.00 | 65 | 1017.1 |
| 20260901072743 | 77 | 337 | 0.0 | 0.0 | 0.00 | 0.00 | 0.00 | 67 | 1016.9 |
| 20260901072246 | 76 | 337 | 0.0 | 0.0 | 0.00 | 0.00 | 0.00 | 72 | 1016.8 |
| 20260901071249 | 76 | 336 | 0.0 | 0.0 | 0.00 | 0.00 | 0.00 | 69 | 1017.2 |
| 20260901070742 | 74 | 336 | 0.0 | 0.9 | 0.00 | 0.00 | 0.00 | 72 | 1016.8 |
| 20260901070243 | 74 | 336 | 0.0 | 0.9 | 0.00 | 0.00 | 0.00 | 74 | 1016.9 |
| 20260901065743 | 73 | 324 | 0.0 | 0.0 | 0.00 | 0.00 | 0.00 | 74 | 1016.9 |
| 20260901065230 | 73 | 322 | 0.0 | 0.0 | 0.00 | 0.00 | 0.00 | 75 | 1016.7 |
| 20260901064737 | 73 | 313 | 0.0 | 0.0 | 0.00 | 0.00 | 0.00 | 75 | 1016.9 |
| 20260901064235 | 72 | 313 | 0.0 | 0.0 | 0.00 | 0.00 | 0.00 | 75 | 1016.9 |
| 20260901063734 | 72 | 320 | 0.0 | 0.0 | 0.00 | 0.00 | 0.00 | 76 | 1016.9 |
| 20260901063236 | 71 | 312 | 0.0 | 0.0 | 0.00 | 0.00 | 0.00 | 77 | 1016.8 |
| 20260901062735 | 70 | 312 | 0.0 | 0.0 | 0.00 | 0.00 | 0.00 | 79 | 1016.9 |
| 20260901062233 | 70 | 312 | 0.0 | 0.0 | 0.00 | 0.00 | 0.00 | 80 | 1017.0 |
| 20260901061730 | 69 | 318 | 0.0 | 0.0 | 0.00 | 0.00 | 0.00 | 80 | 1016.8 |
| 20260901061232 | 69 | 320 | 0.0 | 0.0 | 0.00 | 0.00 | 0.00 | 82 | 1016.9 |
| 20260901060230 | 69 | 314 | 0.0 | 0.0 | 0.00 | 0.00 | 0.00 | 83 | 1017.0 |
| 20260901055733 | 68 | 314 | 0.0 | 0.0 | 0.00 | 0.00 | 0.00 | 83 | 1017.1 |
| 20260901055230 | 67 | 315 | 0.0 | 0.0 | 0.00 | 0.00 | 0.00 | 87 | 1016.9 |
| 20260901054730 | 66 | 327 | 0.0 | 0.0 | 0.00 | 0.00 | 0.00 | 88 | 1016.7 |
| 20260901054233 | 66 | 327 | 0.0 | 0.0 | 0.00 | 0.00 | 0.00 | 91 | 1016.8 |
| 20260901053730 | 65 | 326 | 0.0 | 0.0 | 0.00 | 0.00 | 0.00 | 91 | 1017.0 |
| 20260901053230 | 65 | 326 | 0.0 | 0.0 | 0.00 | 0.00 | 0.00 | 91 | 1017.0 |
| 20260901052732 | 65 | 326 | 0.0 | 0.0 | 0.00 | 0.00 | 0.00 | 91 | 1016.8 |
| 20260901052235 | 64 | 326 | 0.0 | 0.0 | 0.00 | 0.00 | 0.00 | 91 | 1017.0 |
| 20260901051734 | 64 | 326 | 0.0 | 0.0 | 0.00 | 0.00 | 0.00 | 91 | 1016.8 |
| 20260901051236 | 64 | 326 | 0.0 | 0.0 | 0.00 | 0.00 | 0.00 | 91 | 1016.9 |
| 20260901050733 | 64 | 326 | 0.0 | 0.0 | 0.00 | 0.00 | 0.00 | 91 | 1016.8 |
| 20260901050240 | 64 | 326 | 0.0 | 0.0 | 0.00 | 0.00 | 0.00 | 91 | 1016.9 |
| 20260901045735 | 64 | 326 | 0.0 | 0.0 | 0.00 | 0.00 | 0.00 | 91 | 1016.8 |
| 20260901044734 | 64 | 326 | 0.0 | 0.0 | 0.00 | 0.00 | 0.00 | 91 | 1016.9 |
| 20260901043735 | 64 | 320 | 0.0 | 0.0 | 0.00 | 0.00 | 0.00 | 91 | 1016.7 |
| 20260901043234 | 64 | 320 | 0.0 | 0.0 | 0.00 | 0.00 | 0.00 | 90 | 1016.7 |
| 20260901042717 | 64 | 320 | 0.0 | 0.0 | 0.00 | 0.00 | 0.00 | 90 | 1016.4 |
| 20260901042217 | 64 | 320 | 0.0 | 0.0 | 0.00 | 0.00 | 0.00 | 90 | 1016.9 |
| 20260901041719 | 64 | 320 | 0.0 | 0.0 | 0.00 | 0.00 | 0.00 | 90 | 1016.7 |
| 20260901041217 | 64 | 320 | 0.0 | 0.0 | 0.00 | 0.00 | 0.00 | 90 | 1016.6 |
| 20260901040718 | 64 | 320 | 0.0 | 0.0 | 0.00 | 0.00 | 0.00 | 90 | 1016.5 |
| 20260901040219 | 64 | 320 | 0.0 | 0.0 | 0.00 | 0.00 | 0.00 | 90 | 1016.8 |
| 20260901035705 | 64 | 320 | 0.0 | 0.0 | 0.00 | 0.00 | 0.00 | 89 | 1016.5 |
| 20260901035207 | 64 | 320 | 0.0 | 0.0 | 0.00 | 0.00 | 0.00 | 89 | 1016.9 |
| 20260901034705 | 64 | 320 | 0.0 | 0.0 | 0.00 | 0.00 | 0.00 | 89 | 1016.6 |
| 20260901034147 | 64 | 320 | 0.0 | 0.0 | 0.00 | 0.00 | 0.00 | 89 | 1016.6 |
| 20260901033642 | 65 | 320 | 0.0 | 0.0 | 0.00 | 0.00 | 0.00 | 88 | 1016.6 |
| 20260901033131 | 65 | 320 | 0.0 | 0.0 | 0.00 | 0.00 | 0.00 | 89 | 1016.5 |
| 20260901032630 | 65 | 320 | 0.0 | 0.0 | 0.00 | 0.00 | 0.00 | 89 | 1016.4 |
| 20260901032132 | 65 | 320 | 0.0 | 0.0 | 0.00 | 0.00 | 0.00 | 89 | 1016.3 |
| 20260901031633 | 65 | 320 | 0.0 | 0.0 | 0.00 | 0.00 | 0.00 | 89 | 1016.4 |
| 20260901031136 | 65 | 320 | 0.0 | 0.0 | 0.00 | 0.00 | 0.00 | 89 | 1016.4 |
| 20260901030133 | 65 | 320 | 0.0 | 0.0 | 0.00 | 0.00 | 0.00 | 89 | 1016.6 |
| 20260901025640 | 65 | 320 | 0.0 | 0.0 | 0.00 | 0.00 | 0.00 | 89 | 1016.5 |
| 20260901025137 | 64 | 313 | 0.0 | 0.0 | 0.00 | 0.00 | 0.00 | 88 | 1016.6 |
| 20260901024633 | 65 | 313 | 0.0 | 0.0 | 0.00 | 0.00 | 0.00 | 88 | 1016.5 |
| 20260901024133 | 65 | 312 | 0.0 | 0.0 | 0.00 | 0.00 | 0.00 | 88 | 1016.6 |
| 20260901023632 | 65 | 312 | 0.0 | 1.7 | 0.00 | 0.00 | 0.00 | 88 | 1016.7 |
| 20260901023134 | 65 | 312 | 0.0 | 1.7 | 0.00 | 0.00 | 0.00 | 88 | 1016.4 |
| 20260901022635 | 65 | 312 | 0.0 | 0.0 | 0.00 | 0.00 | 0.00 | 88 | 1016.6 |
| 20260901022135 | 65 | 312 | 0.0 | 0.0 | 0.00 | 0.00 | 0.00 | 88 | 1016.5 |
| 20260901021635 | 65 | 312 | 0.0 | 0.0 | 0.00 | 0.00 | 0.00 | 87 | 1016.7 |
| 20260901021130 | 65 | 312 | 0.0 | 1.7 | 0.00 | 0.00 | 0.00 | 87 | 1016.4 |
| 20260901020631 | 65 | 312 | 0.0 | 2.6 | 0.00 | 0.00 | 0.00 | 87 | 1016.4 |
| 20260901020130 | 65 | 314 | 1.7 | 2.6 | 0.00 | 0.00 | 0.00 | 87 | 1016.6 |
| 20260901015136 | 65 | 304 | 0.0 | 0.0 | 0.00 | 0.00 | 0.00 | 86 | 1016.3 |
| 20260901014630 | 65 | 304 | 0.0 | 1.7 | 0.00 | 0.00 | 0.00 | 86 | 1016.4 |
| 20260901013136 | 65 | 304 | 0.0 | 0.0 | 0.00 | 0.00 | 0.00 | 86 | 1016.6 |
| 20260901012639 | 65 | 304 | 0.0 | 0.0 | 0.00 | 0.00 | 0.00 | 86 | 1016.4 |
| 20260901012135 | 65 | 304 | 0.0 | 0.0 | 0.00 | 0.00 | 0.00 | 86 | 1016.3 |
| 20260901011614 | 65 | 304 | 0.0 | 0.0 | 0.00 | 0.00 | 0.00 | 85 | 1016.3 |
| 20260901011104 | 65 | 304 | 0.0 | 0.0 | 0.00 | 0.00 | 0.00 | 85 | 1016.6 |
| 20260901010547 | 66 | 304 | 0.0 | 0.0 | 0.00 | 0.00 | 0.00 | 85 | 1016.5 |
| 20260901010041 | 66 | 304 | 0.0 | 0.0 | 0.00 | 0.00 | 0.00 | 85 | 1016.4 |
| 20260901005544 | 66 | 304 | 0.0 | 0.0 | 0.00 | 0.00 | 0.00 | 85 | 1016.4 |
| 20260901005041 | 66 | 304 | 0.0 | 0.0 | 0.00 | 0.00 | 0.00 | 85 | 1016.3 |
| 20260901004541 | 66 | 304 | 0.0 | 0.0 | 0.00 | 0.00 | 0.00 | 84 | 1016.5 |
| 20260901004045 | 66 | 304 | 0.0 | 0.0 | 0.00 | 0.00 | 0.00 | 84 | 1016.4 |
| 20260901003544 | 66 | 304 | 0.0 | 0.0 | 0.00 | 0.00 | 0.00 | 84 | 1016.2 |
| 20260901003044 | 66 | 304 | 0.0 | 0.0 | 0.00 | 0.00 | 0.00 | 84 | 1016.5 |
| 20260901002530 | 66 | 304 | 0.0 | 0.0 | 0.00 | 0.00 | 0.00 | 84 | 1016.4 |
| 20260901002011 | 66 | 304 | 0.0 | 0.0 | 0.00 | 0.00 | 0.00 | 84 | 1016.5 |
| 20260901001505 | 66 | 304 | 0.0 | 0.0 | 0.00 | 0.00 | 0.00 | 84 | 1016.4 |
| 20260901000443 | 65 | 305 | 0.0 | 0.9 | 0.00 | 0.00 | 0.00 | 83 | 1016.5 |
| 20260831235942 | 66 | 304 | 0.0 | 0.9 | 0.00 | 0.00 | 0.00 | 82 | 1016.8 |
| 20260831235441 | 66 | 312 | 0.0 | 0.9 | 0.00 | 0.00 | 0.00 | 81 | 1016.6 |
| 20260831234445 | 66 | 312 | 0.0 | 0.9 | 0.00 | 0.00 | 0.00 | 81 | 1016.8 |
| 20260831233943 | 66 | 312 | 0.0 | 0.0 | 0.00 | 0.00 | 0.00 | 80 | 1016.5 |
| 20260831233445 | 66 | 312 | 0.0 | 0.0 | 0.00 | 0.00 | 0.00 | 80 | 1016.6 |
| 20260831232945 | 67 | 312 | 0.0 | 0.0 | 0.00 | 0.00 | 0.00 | 80 | 1016.6 |
| 20260831232442 | 67 | 312 | 0.0 | 0.0 | 0.00 | 0.00 | 0.00 | 80 | 1016.5 |
| 20260831231946 | 67 | 313 | 0.0 | 0.0 | 0.00 | 0.00 | 0.00 | 79 | 1016.3 |
| 20260831231443 | 68 | 312 | 0.0 | 0.0 | 0.00 | 0.00 | 0.00 | 78 | 1016.4 |
| 20260831230947 | 68 | 312 | 0.0 | 0.0 | 0.00 | 0.00 | 0.00 | 77 | 1016.4 |
| 20260831225945 | 69 | 312 | 0.0 | 0.9 | 0.00 | 0.00 | 0.00 | 76 | 1016.3 |
| 20260831224445 | 69 | 312 | 0.0 | 1.7 | 0.00 | 0.00 | 0.00 | 76 | 1016.4 |
| 20260831223944 | 69 | 312 | 0.9 | 2.6 | 0.00 | 0.00 | 0.00 | 75 | 1016.0 |
| 20260831223445 | 69 | 315 | 1.7 | 2.6 | 0.00 | 0.00 | 0.00 | 76 | 1016.1 |
| 20260831222945 | 70 | 323 | 0.0 | 0.0 | 0.00 | 0.00 | 0.00 | 76 | 1016.1 |
| 20260831220944 | 71 | 324 | 0.0 | 0.9 | 0.00 | 0.00 | 0.00 | 73 | 1016.1 |
| 20260831220443 | 71 | 324 | 0.0 | 0.9 | 0.00 | 0.00 | 0.00 | 72 | 1016.2 |
| 20260831215945 | 71 | 316 | 0.0 | 0.9 | 0.00 | 0.00 | 0.00 | 73 | 1016.0 |
| 20260831215442 | 71 | 316 | 0.0 | 0.9 | 0.00 | 0.00 | 0.00 | 72 | 1016.2 |
| 20260831214945 | 72 | 316 | 0.0 | 0.9 | 0.00 | 0.00 | 0.00 | 72 | 1015.9 |
| 20260831214445 | 73 | 318 | 0.9 | 0.9 | 0.00 | 0.00 | 0.00 | 71 | 1016.0 |
| 20260831213940 | 73 | 312 | 0.0 | 0.9 | 0.00 | 0.00 | 0.00 | 71 | 1015.8 |
| 20260831213443 | 74 | 312 | 0.0 | 1.7 | 0.00 | 0.00 | 0.00 | 71 | 1016.0 |
| 20260831212447 | 75 | 315 | 1.7 | 2.6 | 0.00 | 0.00 | 0.00 | 73 | 1015.8 |
| 20260831211944 | 75 | 313 | 1.7 | 1.7 | 0.00 | 0.00 | 0.00 | 73 | 1015.6 |
| 20260831211445 | 75 | 318 | 0.0 | 3.5 | 0.00 | 0.00 | 0.00 | 72 | 1015.9 |
| 20260831205943 | 74 | 310 | 0.9 | 1.7 | 0.00 | 0.00 | 0.00 | 71 | 1016.3 |
| 20260831205444 | 74 | 309 | 0.0 | 2.6 | 0.00 | 0.00 | 0.00 | 69 | 1015.9 |
| 20260831204946 | 75 | 309 | 0.0 | 2.6 | 0.00 | 0.00 | 0.00 | 68 | 1015.8 |
| 20260831204445 | 75 | 312 | 0.0 | 2.6 | 0.00 | 0.00 | 0.00 | 69 | 1015.6 |
| 20260831203945 | 75 | 314 | 0.9 | 2.6 | 0.00 | 0.00 | 0.00 | 69 | 1015.9 |
| 20260831203446 | 75 | 314 | 0.9 | 7.0 | 0.00 | 0.00 | 0.00 | 66 | 1015.8 |
| 20260831202945 | 76 | 325 | 2.6 | 7.0 | 0.00 | 0.00 | 0.00 | 68 | 1015.7 |
| 20260831201948 | 76 | 326 | 3.5 | 6.1 | 0.00 | 0.00 | 0.00 | 68 | 1015.3 |
| 20260831201445 | 75 | 325 | 1.7 | 6.1 | 0.00 | 0.00 | 0.00 | 63 | 1015.7 |
| 20260831200943 | 75 | 313 | 3.5 | 5.2 | 0.00 | 0.00 | 0.00 | 63 | 1015.4 |
| 20260831195945 | 74 | 310 | 1.7 | 1.7 | 0.00 | 0.00 | 0.00 | 56 | 1015.3 |
| 20260831195441 | 75 | 310 | 0.9 | 6.1 | 0.00 | 0.00 | 0.00 | 57 | 1015.4 |
| 20260831194943 | 75 | 317 | 1.7 | 6.1 | 0.00 | 0.00 | 0.00 | 56 | 1015.3 |
| 20260831194442 | 75 | 323 | 1.7 | 3.5 | 0.00 | 0.00 | 0.00 | 54 | 1015.3 |
| 20260831193936 | 76 | 311 | 0.9 | 3.5 | 0.00 | 0.00 | 0.00 | 54 | 1015.0 |
| 20260831193436 | 77 | 315 | 1.7 | 3.5 | 0.00 | 0.00 | 0.00 | 53 | 1015.3 |
| 20260831192934 | 78 | 319 | 0.9 | 3.5 | 0.00 | 0.00 | 0.00 | 51 | 1015.1 |
| 20260831192417 | 78 | 314 | 1.7 | 5.2 | 0.00 | 0.00 | 0.00 | 50 | 1015.0 |
| 20260831191917 | 79 | 320 | 1.7 | 5.2 | 0.00 | 0.00 | 0.00 | 51 | 1015.2 |
| 20260831190904 | 79 | 322 | 1.7 | 8.7 | 0.00 | 0.00 | 0.00 | 49 | 1014.9 |
| 20260831190407 | 79 | 320 | 2.6 | 8.7 | 0.00 | 0.00 | 0.00 | 48 | 1014.8 |
| 20260831185907 | 80 | 304 | 3.5 | 7.8 | 0.00 | 0.00 | 0.00 | 47 | 1014.9 |
| 20260831185351 | 80 | 339 | 0.9 | 7.8 | 0.00 | 0.00 | 0.00 | 46 | 1014.9 |
| 20260831184851 | 80 | 320 | 0.9 | 8.7 | 0.00 | 0.00 | 0.00 | 44 | 1014.7 |
| 20260831184353 | 80 | 315 | 1.7 | 8.7 | 0.00 | 0.00 | 0.00 | 44 | 1014.8 |
| 20260831183841 | 80 | 308 | 3.5 | 6.1 | 0.00 | 0.00 | 0.00 | 43 | 1014.6 |
| 20260831183342 | 80 | 308 | 3.5 | 6.1 | 0.00 | 0.00 | 0.00 | 42 | 1014.7 |
| 20260831182843 | 81 | 322 | 0.9 | 6.1 | 0.00 | 0.00 | 0.00 | 42 | 1014.6 |
| 20260831182343 | 81 | 308 | 2.6 | 7.0 | 0.00 | 0.00 | 0.00 | 42 | 1014.7 |
| 20260831181842 | 81 | 313 | 1.7 | 7.0 | 0.00 | 0.00 | 0.00 | 42 | 1014.6 |
| 20260831181346 | 81 | 317 | 1.7 | 5.2 | 0.00 | 0.00 | 0.00 | 44 | 1014.7 |
| 20260831180843 | 81 | 318 | 0.9 | 7.8 | 0.00 | 0.00 | 0.00 | 43 | 1014.7 |
| 20260831180342 | 81 | 314 | 0.9 | 11.3 | 0.00 | 0.00 | 0.00 | 42 | 1014.5 |
| 20260831175843 | 81 | 301 | 0.0 | 11.3 | 0.00 | 0.00 | 0.00 | 41 | 1014.7 |
| 20260831175348 | 81 | 304 | 0.0 | 6.1 | 0.00 | 0.00 | 0.00 | 42 | 1014.5 |
| 20260831174841 | 82 | 332 | 0.9 | 5.2 | 0.00 | 0.00 | 0.00 | 42 | 1014.4 |
| 20260831174344 | 82 | 7 | 0.0 | 7.8 | 0.00 | 0.00 | 0.00 | 41 | 1014.6 |
| 20260831173842 | 82 | 130 | 0.0 | 7.8 | 0.00 | 0.00 | 0.00 | 41 | 1014.5 |
| 20260831172840 | 82 | 315 | 0.9 | 3.5 | 0.00 | 0.00 | 0.00 | 44 | 1014.5 |
| 20260831172326 | 83 | 312 | 1.7 | 3.5 | 0.00 | 0.00 | 0.00 | 43 | 1014.3 |
| 20260831171826 | 83 | 56 | 0.0 | 7.0 | 0.00 | 0.00 | 0.00 | 46 | 1014.4 |
| 20260831171328 | 83 | 322 | 3.5 | 7.0 | 0.00 | 0.00 | 0.00 | 46 | 1014.4 |
| 20260831170814 | 84 | 59 | 0.9 | 6.1 | 0.00 | 0.00 | 0.00 | 46 | 1014.3 |
| 20260831170322 | 84 | 338 | 0.0 | 6.1 | 0.00 | 0.00 | 0.00 | 46 | 1014.2 |
| 20260831165817 | 84 | 315 | 2.6 | 6.1 | 0.00 | 0.00 | 0.00 | 45 | 1014.3 |
| 20260831165305 | 85 | 39 | 0.9 | 6.1 | 0.00 | 0.00 | 0.00 | 45 | 1014.2 |
| 20260831164803 | 85 | 52 | 0.9 | 2.6 | 0.00 | 0.00 | 0.00 | 44 | 1014.0 |
| 20260831164305 | 85 | 91 | 0.9 | 2.6 | 0.00 | 0.00 | 0.00 | 44 | 1013.9 |
| 20260831163255 | 85 | 303 | 3.5 | 6.1 | 0.00 | 0.00 | 0.00 | 43 | 1014.1 |
| 20260831162753 | 85 | 326 | 1.7 | 6.1 | 0.00 | 0.00 | 0.00 | 43 | 1014.2 |
| 20260831162244 | 86 | 311 | 1.7 | 7.8 | 0.00 | 0.00 | 0.00 | 43 | 1014.1 |
| 20260831161246 | 86 | 317 | 1.7 | 5.2 | 0.00 | 0.00 | 0.00 | 43 | 1014.3 |
| 20260831160743 | 86 | 327 | 0.9 | 5.2 | 0.00 | 0.00 | 0.00 | 44 | 1014.1 |
| 20260831160245 | 86 | 330 | 2.6 | 7.0 | 0.00 | 0.00 | 0.00 | 44 | 1014.3 |
| 20260831155740 | 86 | 336 | 0.9 | 7.0 | 0.00 | 0.00 | 0.00 | 43 | 1014.1 |
| 20260831155241 | 87 | 320 | 0.9 | 5.2 | 0.00 | 0.00 | 0.00 | 42 | 1014.1 |
| 20260831154243 | 87 | 21 | 0.9 | 1.7 | 0.00 | 0.00 | 0.00 | 43 | 1014.1 |
| 20260831153739 | 87 | 0 | 0.0 | 1.7 | 0.00 | 0.00 | 0.00 | 41 | 1014.0 |
| 20260831152740 | 88 | 100 | 0.0 | 5.2 | 0.00 | 0.00 | 0.00 | 41 | 1014.0 |
| 20260831152241 | 88 | 329 | 4.3 | 5.2 | 0.00 | 0.00 | 0.00 | 40 | 1014.0 |
| 20260831151243 | 88 | 352 | 0.9 | 2.6 | 0.00 | 0.00 | 0.00 | 41 | 1014.3 |
| 20260831150738 | 88 | 332 | 0.0 | 6.1 | 0.00 | 0.00 | 0.00 | 43 | 1014.2 |
| 20260831150242 | 88 | 325 | 0.9 | 7.8 | 0.00 | 0.00 | 0.00 | 42 | 1014.1 |
| 20260831145742 | 88 | 315 | 3.5 | 7.8 | 0.00 | 0.00 | 0.00 | 42 | 1014.1 |
| 20260831145245 | 88 | 323 | 2.6 | 7.8 | 0.00 | 0.00 | 0.00 | 43 | 1014.2 |
| 20260831144741 | 89 | 334 | 4.3 | 7.8 | 0.00 | 0.00 | 0.00 | 43 | 1014.2 |
| 20260831144246 | 89 | 124 | 0.9 | 1.7 | 0.00 | 0.00 | 0.00 | 44 | 1014.1 |
| 20260831143739 | 90 | 22 | 0.9 | 1.7 | 0.00 | 0.00 | 0.00 | 45 | 1014.1 |
| 20260831143241 | 90 | 120 | 0.9 | 1.7 | 0.00 | 0.00 | 0.00 | 45 | 1014.0 |
| 20260831142739 | 90 | 17 | 0.0 | 3.5 | 0.00 | 0.00 | 0.00 | 46 | 1013.9 |
| 20260831142245 | 90 | 79 | 0.9 | 7.0 | 0.00 | 0.00 | 0.00 | 44 | 1013.9 |
| 20260831141242 | 90 | 70 | 0.0 | 0.9 | 0.00 | 0.00 | 0.00 | 43 | 1014.0 |
| 20260831140251 | 91 | 105 | 0.0 | 1.7 | 0.00 | 0.00 | 0.00 | 41 | 1014.0 |
| 20260831135243 | 90 | 5 | 0.0 | 1.7 | 0.00 | 0.00 | 0.00 | 43 | 1013.9 |
| 20260831134739 | 89 | 140 | 0.9 | 6.1 | 0.00 | 0.00 | 0.00 | 43 | 1014.0 |
| 20260831134242 | 89 | 28 | 0.9 | 6.1 | 0.00 | 0.00 | 0.00 | 43 | 1014.2 |
| 20260831132728 | 92 | 325 | 1.7 | 12.2 | 0.00 | 0.00 | 0.00 | 39 | 1014.0 |
| 20260831132229 | 91 | 323 | 0.0 | 5.2 | 0.00 | 0.00 | 0.00 | 40 | 1014.1 |
| 20260831131215 | 92 | 324 | 1.7 | 3.5 | 0.00 | 0.00 | 0.00 | 39 | 1014.2 |
| 20260831130714 | 91 | 347 | 0.9 | 3.5 | 0.00 | 0.00 | 0.00 | 40 | 1014.3 |
| 20260831130214 | 91 | 317 | 0.0 | 7.0 | 0.00 | 0.00 | 0.00 | 40 | 1014.0 |
| 20260831125716 | 89 | 306 | 0.0 | 7.0 | 0.00 | 0.00 | 0.00 | 42 | 1014.3 |
| 20260831124717 | 89 | 314 | 5.2 | 7.8 | 0.00 | 0.00 | 0.00 | 40 | 1014.3 |
| 20260831124220 | 90 | 322 | 1.7 | 7.0 | 0.00 | 0.00 | 0.00 | 40 | 1014.4 |
| 20260831123714 | 92 | 326 | 6.1 | 7.0 | 0.00 | 0.00 | 0.00 | 38 | 1014.4 |
| 20260831122202 | 90 | 312 | 4.3 | 6.1 | 0.00 | 0.00 | 0.00 | 40 | 1014.4 |
| 20260831121650 | 89 | 0 | 0.0 | 7.0 | 0.00 | 0.00 | 0.00 | 41 | 1014.5 |
| 20260831121149 | 89 | 322 | 0.9 | 7.8 | 0.00 | 0.00 | 0.00 | 41 | 1014.7 |
| 20260831120656 | 89 | 331 | 0.0 | 7.8 | 0.00 | 0.00 | 0.00 | 40 | 1014.5 |
| 20260831120140 | 90 | 326 | 1.7 | 5.2 | 0.00 | 0.00 | 0.00 | 39 | 1014.4 |
| 20260831115640 | 89 | 226 | 0.0 | 7.8 | 0.00 | 0.00 | 0.00 | 39 | 1014.6 |
| 20260831115138 | 89 | 311 | 0.9 | 9.6 | 0.00 | 0.00 | 0.00 | 41 | 1014.7 |
| 20260831114638 | 90 | 317 | 3.5 | 9.6 | 0.00 | 0.00 | 0.00 | 39 | 1014.6 |
| 20260831114143 | 89 | 346 | 0.0 | 8.7 | 0.00 | 0.00 | 0.00 | 42 | 1014.7 |
| 20260831113641 | 89 | 343 | 2.6 | 8.7 | 0.00 | 0.00 | 0.00 | 41 | 1014.7 |
| 20260831113141 | 90 | 303 | 2.6 | 6.1 | 0.00 | 0.00 | 0.00 | 41 | 1014.8 |
| 20260831112643 | 89 | 68 | 0.9 | 2.6 | 0.00 | 0.00 | 0.00 | 42 | 1014.9 |
| 20260831112138 | 89 | 330 | 0.0 | 6.1 | 0.00 | 0.00 | 0.00 | 43 | 1014.9 |
| 20260831111638 | 88 | 305 | 2.6 | 6.1 | 0.00 | 0.00 | 0.00 | 43 | 1014.8 |
| 20260831111141 | 88 | 312 | 1.7 | 6.1 | 0.00 | 0.00 | 0.00 | 44 | 1014.6 |
| 20260831110626 | 88 | 326 | 0.9 | 7.8 | 0.00 | 0.00 | 0.00 | 42 | 1014.8 |
| 20260831110131 | 87 | 316 | 4.3 | 7.8 | 0.00 | 0.00 | 0.00 | 43 | 1014.8 |
| 20260831105629 | 87 | 304 | 0.0 | 7.0 | 0.00 | 0.00 | 0.00 | 44 | 1014.7 |
| 20260831105126 | 87 | 313 | 3.5 | 7.8 | 0.00 | 0.00 | 0.00 | 42 | 1014.7 |
| 20260831104629 | 87 | 293 | 3.5 | 7.8 | 0.00 | 0.00 | 0.00 | 44 | 1014.9 |
| 20260831104126 | 87 | 299 | 1.7 | 7.0 | 0.00 | 0.00 | 0.00 | 44 | 1014.8 |
| 20260831103629 | 87 | 308 | 1.7 | 7.0 | 0.00 | 0.00 | 0.00 | 46 | 1014.8 |
| 20260831103130 | 87 | 318 | 1.7 | 6.1 | 0.00 | 0.00 | 0.00 | 43 | 1015.1 |
| 20260831102116 | 88 | 306 | 1.7 | 6.1 | 0.00 | 0.00 | 0.00 | 45 | 1015.0 |
| 20260831101104 | 87 | 353 | 0.9 | 5.2 | 0.00 | 0.00 | 0.00 | 47 | 1015.1 |
| 20260831100602 | 85 | 295 | 0.9 | 7.8 | 0.00 | 0.00 | 0.00 | 49 | 1015.1 |
| 20260831100055 | 84 | 310 | 3.5 | 7.8 | 0.00 | 0.00 | 0.00 | 47 | 1015.1 |
| 20260831095550 | 84 | 309 | 0.9 | 7.0 | 0.00 | 0.00 | 0.00 | 52 | 1015.2 |
| 20260831095051 | 83 | 320 | 1.7 | 8.7 | 0.00 | 0.00 | 0.00 | 51 | 1015.2 |
| 20260831094539 | 84 | 313 | 2.6 | 8.7 | 0.00 | 0.00 | 0.00 | 51 | 1015.2 |
| 20260831094038 | 83 | 306 | 2.6 | 7.0 | 0.00 | 0.00 | 0.00 | 53 | 1015.2 |
| 20260831093540 | 83 | 310 | 0.0 | 6.1 | 0.00 | 0.00 | 0.00 | 56 | 1015.1 |
| 20260831093037 | 83 | 285 | 1.7 | 7.8 | 0.00 | 0.00 | 0.00 | 55 | 1015.3 |
| 20260831092540 | 82 | 329 | 1.7 | 7.8 | 0.00 | 0.00 | 0.00 | 56 | 1015.3 |
| 20260831092040 | 83 | 309 | 2.6 | 6.1 | 0.00 | 0.00 | 0.00 | 54 | 1015.6 |
| 20260831091538 | 82 | 312 | 1.7 | 6.1 | 0.00 | 0.00 | 0.00 | 58 | 1015.5 |
| 20260831091029 | 82 | 343 | 0.9 | 6.1 | 0.00 | 0.00 | 0.00 | 58 | 1015.5 |
| 20260831090526 | 83 | 305 | 1.7 | 5.2 | 0.00 | 0.00 | 0.00 | 57 | 1015.7 |
| 20260831090027 | 81 | 12 | 0.0 | 7.0 | 0.00 | 0.00 | 0.00 | 61 | 1015.6 |
| 20260831085529 | 80 | 308 | 1.7 | 7.8 | 0.00 | 0.00 | 0.00 | 60 | 1015.8 |
| 20260831084527 | 81 | 330 | 0.0 | 6.1 | 0.00 | 0.00 | 0.00 | 60 | 1015.6 |
| 20260831084029 | 81 | 318 | 0.0 | 6.1 | 0.00 | 0.00 | 0.00 | 63 | 1015.7 |
| 20260831083525 | 79 | 321 | 0.0 | 6.1 | 0.00 | 0.00 | 0.00 | 63 | 1015.5 |
| 20260831083025 | 79 | 305 | 1.7 | 6.1 | 0.00 | 0.00 | 0.00 | 62 | 1015.6 |
| 20260831082528 | 80 | 315 | 3.5 | 6.1 | 0.00 | 0.00 | 0.00 | 61 | 1015.4 |
| 20260831082029 | 79 | 322 | 0.0 | 6.1 | 0.00 | 0.00 | 0.00 | 64 | 1015.6 |
| 20260831081525 | 79 | 326 | 2.6 | 6.1 | 0.00 | 0.00 | 0.00 | 62 | 1015.5 |